Regional Weather Roundup
Issued by NWS

Home | Current Version | Previous Version | Text Only | Print | Product List | Glossary On
Versions: 1 2 3 4 5 6 7 8 9 10 11 12 13 14 15 16 17 18 19 20 21 22 23 24 25 26 27 28 29 30 31 32 33 34 35 36 37 38 39 40 41 42 43 44 45 46 47 48 49 50
000
ASUS43 KDTX 181510
RWRMI
MICHIGAN HOURLY REGIONAL WEATHER ROUNDUP
NATIONAL WEATHER SERVICE DETROIT/PONTIAC MI
1100 AM EDT FRI APR 18 2014

NOTE: "FAIR" INDICATES FEW OR NO CLOUDS BELOW 12,000 FEET WITH NO
SIGNIFICANT WEATHER AND/OR OBSTRUCTION TO VISIBILITY.

MIZ047>049-052>055-059>063-066>070-074>076-081>083-181600-
SOUTHEAST LOWER MICHIGAN

CITY           SKY/WX    TMP DP  RH WIND       PRES   REMARKS
ADRIAN         CLOUDY    55  42  61 CALM      30.28R
ALMA           MOSUNNY   49  35  60 CALM      30.29S
ANN ARBOR      CLOUDY    53  44  71 W7        30.27S
BAD AXE        CLOUDY    43  32  64 NE7       30.30F
DETROIT CITY   CLOUDY    55  41  59 SE3       30.27F
DETROIT        CLOUDY    55  41  59 CALM      30.28S
FLINT          MOSUNNY   51  41  68 NE7       30.28F
GROSSE ILE     PTSUNNY   54  43  66 E3        30.26F
HILLSDALE      MOSUNNY   55  44  65 W5        30.26F
HOWELL         PTSUNNY   49  44  84 CALM      30.27S

CITY           SKY/WX    TMP DP  RH WIND       PRES   REMARKS
JACKSON        MOSUNNY   52  46  80 VRB3      30.27S
LAMBERTVILLE   CLOUDY    59  41  51 CALM      30.27F
LANSING        SUNNY     52  39  61 CALM      30.28F
LAPEER         NOT AVBL
MASON          SUNNY     51  44  76 CALM      30.27S
MONROE         PTSUNNY   55  43  62 CALM      30.26S
MT. CLEMENS    CLOUDY    47  46  97 NE5       30.27S
PONTIAC        CLOUDY    48  44  86 CALM      30.27R FOG
PORT HOPE        N/A     40  32  73 N6        30.30R
PORT HURON     LGT RAIN  41  39  93 NE10      30.29F
TRI CITIES     MOSUNNY   48  34  58 E8        30.30F
YPSILANTI      CLOUDY    57  42  57 CALM      30.27S
$$
MIZ043>046-050>051-056>058-064>065-071>073-077>080-181600-
SOUTHWEST LOWER MICHIGAN

CITY           SKY/WX    TMP DP  RH WIND       PRES   REMARKS
BATTLE CREEK   SUNNY     54  41  61 CALM      30.28S
BENTON HARBOR  SUNNY     44  37  76 NW7       30.31R
BIG RAPIDS     CLOUDY    43  33  69 N6        30.30R
COLDWATER      SUNNY     54  44  68 NW3       30.28R
HOLLAND        PTSUNNY   53  39  59 SW5       30.30R
GRAND RAPIDS   MOSUNNY   55  38  52 VRB6      30.28S
KALAMAZOO      SUNNY     55  41  59 CALM      30.28S
MARSHALL       SUNNY     53  43  71 NW3       30.27S
MUSKEGON       PTSUNNY   49  35  58 N9        30.31R
$$
MIZ016>042-181600-
NORTHERN LOWER MICHIGAN

CITY           SKY/WX    TMP DP  RH WIND       PRES   REMARKS
ALPENA         CLOUDY    39  30  70 N8        30.31R
BEAVER ISLAND  PTSUNNY   37  26  67 W6        30.33S
BELLAIRE       CLOUDY    36  28  72 N7        30.34S
CADILLAC       CLOUDY    39  32  76 N7        30.30R
CHARLEVOIX     CLOUDY    35  28  78 N3        30.37S
FRANKFORT      CLOUDY    36  27  69 N8        30.36R
GAYLORD        CLOUDY    33  29  85 NW7       30.30R
GRAYLING       CLOUDY    38  32  80 W7        30.31S
HARBOR SPRINGS CLOUDY    36  29  77 SW3       30.32S
HOUGHTON LAKE  PTSUNNY   42  33  70 W8        30.30R
MANISTEE       CLOUDY    37  28  70 NW3       30.36R
OSCODA         SUNNY     48  33  55 E5        30.29R
PELLSTON       CLOUDY    36  26  67 NW9       30.33S
TRAVERSE CITY  CLOUDY    35  28  75 NE8       30.34R
$$
MIZ007>008-015-181600-
EASTERN UPPER MICHIGAN

CITY           SKY/WX    TMP DP  RH WIND       PRES   REMARKS
KINROSS        CLOUDY    36  28  75 NW9       30.30R
MACKINAC ISLAN CLOUDY    33  28  80 W6        30.32R
NEWBERRY       CLOUDY    34  26  74 W7        30.31R
S. S. MARIE    CLOUDY    34  27  75 NW9       30.30R
$$
MIZ004>006-011>014-085-181600-
CENTRAL UPPER MICHIGAN

CITY           SKY/WX    TMP DP  RH WIND       PRES   REMARKS
MANISTIQUE     CLOUDY    35  28  75 NW12G17   30.33R
ESCANABA       PTSUNNY   37  23  56 NW6       30.35R
MENOMINEE      CLOUDY    36  25  64 NW6       30.36S
SAWYER-GWINN   CLOUDY    34  25  69 NW10      30.33R
$$
MIZ001>003-009>011-084-181600-
WESTERN UPPER MICHIGAN

CITY           SKY/WX    TMP DP  RH WIND       PRES   REMARKS
IRON MOUNTAIN  CLOUDY    34  24  67 NW6       30.34R
HOUGHTON       CLOUDY    30  25  80 NW12      30.36R
COPPER HARBOR    N/A     31  28  89 N12       30.36R
IRONWOOD       CLOUDY    30  23  74 NW5       30.35S
$$

ABBREVIATIONS USED IN REMARKS
   TC - TEMPERATURE IN CELSIUS
  WCI - WIND CHILL INDEX
   HX - HEAT INDEX
  VSB - VISIBILITY




USA.gov is the U.S. government's official web portal to all federal, state and local government web resources and services.